Location: Newark
(41.6500°N, 71.4833°W)
Time: 05:52:19
(UTC+00:00)

A-11 Canister half - Pass Details

Date: 26 January 2020
Orbit: 1517 x 1683 km, 47.2° (Epoch: 19 February)

Event Time Altitude Azimuth Distance (km) Brightness Sun altitude
Rises 06:19:06 0° 268° (W) 4,713 - -61.4°
Reaches altitude 10° 06:22:15 10° 272° (W) 3,714 - -61.0°
Maximum altitude 06:31:31 64° 353° (N) 1,660 - -59.8°
Exits shadow 06:39:25 15° 72° (ENE) 3,283 11.0 -58.7°
Drops below altitude 10° 06:40:42 10° 74° (ENE) 3,683 11.3 -58.5°
Sets 06:43:48 0° 78° (ENE) 4,673 12.0 -58.0°
